Home > Weather > Dachau > Past weeks

Flag for Germany Past Weather in Dachau, Bavaria, Germany — Yesterday and Last 2 Weeks

Now
50 °F

Low clouds.


Feels Like: 48 °F
Forecast: 48 / 72 °F
Wind: 5 mph from West

Location: Munich / Franz Josef Strauss Airport

Current Time: May 25, 2016 at 5:31:37 AM

Latest Report: May 25, 2016 at 4:50 AM


Visibility: 4 mi

Pressure: 29.95 "Hg (28.19 "Hg at 502m altitude)

Humidity: 100%

Dew Point: 50 °F

Location of DachauLocation

Past Weather in Dachau — Graph

°F

Dachau Temperature Yesterday

Maximum temperature yesterday: 52 °F (at 1:50 PM)
Minimum temperature yesterday: 46 °F (at 12:20 AM)
Average temperature yesterday: 49 °F

High & Low Weather Summary for the Past Weeks

 TemperatureHumidityPressure
High81 °F (May 22, 3:20 PM)100% (May 10, 11:20 PM)30.18 "Hg (May 10, 11:20 PM)
Low37 °F (May 17, 5:20 AM)30% (May 22, 3:50 PM)29.42 "Hg (May 13, 5:20 AM)
Average53 °F80%29.88 "Hg
* Reported May 10 4:20 AM — May 25 4:20 AM, Dachau, Weather by CustomWeather, © 2016

Note: Actual official high and low records may vary slightly from our data, if they occured in-between our weather recording intervals... More about our weather records

Advertising

Dachau Weather History for the Previous 24 Hours

Scroll right to see more
 ConditionsComfort  
Time TempWeatherWind HumidityBarometerVisibility
4:20 AM
Wed, May 25
50 °FLow clouds.8 mph100%29.95 "Hg4 mi
3:50 AM50 °FLow clouds.3 mph94%29.98 "Hg4 mi
3:20 AM50 °FLow clouds.2 mph100%29.98 "Hg4 mi
2:50 AM50 °FOvercast.3 mph100%29.98 "Hg5 mi
2:20 AM50 °FPassing clouds.2 mph100%29.98 "Hg5 mi
1:50 AM50 °FPartly cloudy.8 mph100%29.95 "Hg5 mi
1:20 AM50 °FPassing clouds.6 mph100%29.98 "Hg5 mi
12:50 AM50 °FPassing clouds.3 mph100%29.98 "Hg5 mi
12:20 AM50 °FPassing clouds.5 mph100%29.98 "Hg5 mi
11:50 PM
Tue, May 24
50 °FPassing clouds.5 mph100%29.98 "Hg5 mi
11:20 PM50 °FPartly cloudy.7 mph100%29.98 "HgN/A
10:50 PM50 °FOvercast.7 mph100%29.98 "Hg5 mi
10:20 PM50 °FDrizzle. Mostly cloudy.7 mph100%29.98 "Hg3 mi
9:50 PM50 °FDrizzle. Mostly cloudy.7 mph100%29.98 "Hg3 mi
9:20 PM50 °FDrizzle. Mostly cloudy.7 mph100%29.98 "Hg4 mi
8:50 PM50 °FDrizzle. Mostly cloudy.8 mph100%29.95 "Hg3 mi
8:20 PM50 °FLight rain. More clouds than sun.8 mph100%29.95 "Hg5 mi
7:50 PM50 °FMore clouds than sun.8 mph100%29.95 "HgN/A
7:20 PM50 °FDrizzle. Mostly cloudy.10 mph100%29.95 "Hg4 mi
6:50 PM50 °FDrizzle. Cloudy.12 mph100%29.95 "Hg2 mi
6:20 PM50 °FDrizzle. Cloudy.9 mph100%29.95 "Hg4 mi
5:50 PM52 °FDrizzle. Mostly cloudy.10 mph94%29.95 "Hg4 mi
5:20 PM52 °FDrizzle. Mostly cloudy.13 mph94%29.92 "Hg4 mi
4:50 PM52 °FDrizzle. Mostly cloudy.13 mph94%29.92 "Hg4 mi
4:20 PM52 °FDrizzle. Mostly cloudy.12 mph94%29.92 "HgN/A
3:50 PM52 °FDrizzle. Mostly cloudy.14 mph94%29.92 "HgN/A
3:20 PM52 °FDrizzle. Mostly cloudy.12 mph94%29.92 "Hg5 mi
2:50 PM52 °FDrizzle. Mostly cloudy.16 mph94%29.92 "Hg4 mi
2:20 PM52 °FDrizzle. Mostly cloudy.14 mph94%29.92 "Hg3 mi
1:50 PM52 °FDrizzle. Mostly cloudy.14 mph94%29.92 "Hg3 mi
1:20 PM50 °FDrizzle. Mostly cloudy.13 mph100%29.92 "Hg3 mi
12:50 PM50 °FDrizzle. Mostly cloudy.13 mph100%29.92 "Hg3 mi
12:20 PM50 °FDrizzle. Mostly cloudy.13 mph100%29.92 "Hg3 mi
11:50 AM50 °FDrizzle. Mostly cloudy.16 mph100%29.92 "Hg3 mi
11:20 AM50 °FDrizzle. Mostly cloudy.16 mph100%29.89 "Hg3 mi
10:50 AM50 °FDrizzle. Mostly cloudy.12 mph100%29.89 "Hg3 mi
10:20 AM50 °FDrizzle. Mostly cloudy.13 mph100%29.89 "Hg3 mi
9:50 AM50 °FDrizzle. Mostly cloudy.10 mph100%29.89 "Hg3 mi
9:20 AM50 °FDrizzle. Mostly cloudy.12 mph100%29.89 "Hg4 mi
8:50 AM50 °FDrizzle. Mostly cloudy.13 mph100%29.89 "Hg4 mi
8:20 AM48 °FDrizzle. Mostly cloudy.13 mph100%29.89 "Hg4 mi
7:50 AM48 °FDrizzle. Mostly cloudy.14 mph100%29.89 "Hg3 mi
7:20 AM46 °FDrizzle. Mostly cloudy.15 mph100%29.86 "Hg3 mi
6:50 AM46 °FDrizzle. Mostly cloudy.16 mph100%29.86 "Hg3 mi
6:20 AM46 °FDrizzle. Mostly cloudy.18 mph100%29.86 "Hg4 mi
5:50 AM46 °FDrizzle. Mostly cloudy.18 mph100%29.86 "Hg4 mi
5:20 AM46 °FDrizzle. Mostly cloudy.18 mph100%29.86 "Hg3 mi
Weather by CustomWeather, © 2016

See weather overviewHow to use our weather pages